[{"OBJECT_NAME":"COSMOS 1933","OBJECT_ID":"1988-020A","EPOCH":"2026-09-12T04:36:07.445376","MEAN_MOTION":15.19187308,"ECCENTRICITY":0.0002524,"INCLINATION":82.5098,"RA_OF_ASC_NODE":66.2268,"ARG_OF_PERICENTER":272.2146,"MEAN_ANOMALY":87.8799,"EPHEMERIS_TYPE":0,"CLASSIFICATION_TYPE":"U","NORAD_CAT_ID":18958,"ELEMENT_SET_NO":999,"REV_AT_EPOCH":7853,"BSTAR":0.0001004,"MEAN_MOTION_DOT":0.00002142,"MEAN_MOTION_DDOT":0},{"OBJECT_NAME":"SL-3 R/B","OBJECT_ID":"1988-032B","EPOCH":"2026-09-12T03:23:24.844992","MEAN_MOTION":15.21442761,"ECCENTRICITY":0.002365,"INCLINATION":97.5351,"RA_OF_ASC_NODE":238.1739,"ARG_OF_PERICENTER":305.8929,"MEAN_ANOMALY":54.0111,"EPHEMERIS_TYPE":0,"CLASSIFICATION_TYPE":"U","NORAD_CAT_ID":19046,"ELEMENT_SET_NO":999,"REV_AT_EPOCH":8044,"BSTAR":0.00014175,"MEAN_MOTION_DOT":0.00003134,"MEAN_MOTION_DDOT":0},{"OBJECT_NAME":"SL-16 R/B","OBJECT_ID":"1988-039B","EPOCH":"2026-09-11T17:14:43.176192","MEAN_MOTION":14.19636885,"ECCENTRICITY":0.0020092,"INCLINATION":71.0157,"RA_OF_ASC_NODE":35.1828,"ARG_OF_PERICENTER":50.5661,"MEAN_ANOMALY":309.7238,"EPHEMERIS_TYPE":0,"CLASSIFICATION_TYPE":"U","NORAD_CAT_ID":19120,"ELEMENT_SET_NO":999,"REV_AT_EPOCH":98478,"BSTAR":0.000082779,"MEAN_MOTION_DOT":0.00000127,"MEAN_MOTION_DDOT":0},{"OBJECT_NAME":"COSMOS 1953","OBJECT_ID":"1988-050A","EPOCH":"2026-09-12T04:04:20.216352","MEAN_MOTION":15.31039723,"ECCENTRICITY":0.0010749,"INCLINATION":82.51,"RA_OF_ASC_NODE":330.2529,"ARG_OF_PERICENTER":176.2585,"MEAN_ANOMALY":183.8738,"EPHEMERIS_TYPE":0,"CLASSIFICATION_TYPE":"U","NORAD_CAT_ID":19210,"ELEMENT_SET_NO":999,"REV_AT_EPOCH":6629,"BSTAR":0.00019227,"MEAN_MOTION_DOT":0.00005807,"MEAN_MOTION_DDOT":0},{"OBJECT_NAME":"SL-8 R/B","OBJECT_ID":"1988-053B","EPOCH":"2026-09-12T03:15:27.929088","MEAN_MOTION":14.38993903,"ECCENTRICITY":0.0021183,"INCLINATION":74.0468,"RA_OF_ASC_NODE":128.7817,"ARG_OF_PERICENTER":263.2309,"MEAN_ANOMALY":259.0083,"EPHEMERIS_TYPE":0,"CLASSIFICATION_TYPE":"U","NORAD_CAT_ID":19257,"ELEMENT_SET_NO":999,"REV_AT_EPOCH":330,"BSTAR":0.00005598,"MEAN_MOTION_DOT":0.00000147,"MEAN_MOTION_DDOT":0},{"OBJECT_NAME":"COSMOS 1975","OBJECT_ID":"1988-093A","EPOCH":"2026-09-11T13:25:35.858784","MEAN_MOTION":15.3028452,"ECCENTRICITY":0.00097882,"INCLINATION":82.5167,"RA_OF_ASC_NODE":290.7647,"ARG_OF_PERICENTER":226.0069,"MEAN_ANOMALY":134.0366,"EPHEMERIS_TYPE":0,"CLASSIFICATION_TYPE":"U","NORAD_CAT_ID":19573,"ELEMENT_SET_NO":999,"REV_AT_EPOCH":4781,"BSTAR":0.00015464707,"MEAN_MOTION_DOT":0.00004568,"MEAN_MOTION_DDOT":0},{"OBJECT_NAME":"SL-14 R/B","OBJECT_ID":"1988-093B","EPOCH":"2026-09-12T00:23:51.007776","MEAN_MOTION":14.85788123,"ECCENTRICITY":0.0021673,"INCLINATION":82.5293,"RA_OF_ASC_NODE":227.1177,"ARG_OF_PERICENTER":138.1659,"MEAN_ANOMALY":288.0039,"EPHEMERIS_TYPE":0,"CLASSIFICATION_TYPE":"U","NORAD_CAT_ID":19574,"ELEMENT_SET_NO":999,"REV_AT_EPOCH":2868,"BSTAR":0.000029991,"MEAN_MOTION_DOT":0.00000286,"MEAN_MOTION_DDOT":0},{"OBJECT_NAME":"SL-16 R/B","OBJECT_ID":"1988-102B","EPOCH":"2026-09-12T00:38:13.672896","MEAN_MOTION":14.16171403,"ECCENTRICITY":0.0012118,"INCLINATION":70.9981,"RA_OF_ASC_NODE":119.4206,"ARG_OF_PERICENTER":86.4108,"MEAN_ANOMALY":273.8401,"EPHEMERIS_TYPE":0,"CLASSIFICATION_TYPE":"U","NORAD_CAT_ID":19650,"ELEMENT_SET_NO":999,"REV_AT_EPOCH":95327,"BSTAR":0.00014693,"MEAN_MOTION_DOT":0.00000243,"MEAN_MOTION_DDOT":0},{"OBJECT_NAME":"INTERCOSMOS 24","OBJECT_ID":"1989-080A","EPOCH":"2026-09-12T05:17:20.964192","MEAN_MOTION":12.59726636,"ECCENTRICITY":0.1186574,"INCLINATION":82.6117,"RA_OF_ASC_NODE":342.9929,"ARG_OF_PERICENTER":219.8135,"MEAN_ANOMALY":130.9816,"EPHEMERIS_TYPE":0,"CLASSIFICATION_TYPE":"U","NORAD_CAT_ID":20261,"ELEMENT_SET_NO":999,"REV_AT_EPOCH":69028,"BSTAR":0.00019195,"MEAN_MOTION_DOT":0.00000655,"MEAN_MOTION_DDOT":0},{"OBJECT_NAME":"SL-14 R/B","OBJECT_ID":"1989-080C","EPOCH":"2026-09-11T17:32:12.270048","MEAN_MOTION":12.50602816,"ECCENTRICITY":0.12302301,"INCLINATION":82.5908,"RA_OF_ASC_NODE":53.6897,"ARG_OF_PERICENTER":119.4658,"MEAN_ANOMALY":253.4837,"EPHEMERIS_TYPE":0,"CLASSIFICATION_TYPE":"U","NORAD_CAT_ID":20262,"ELEMENT_SET_NO":999,"REV_AT_EPOCH":68340,"BSTAR":0.000072633996,"MEAN_MOTION_DOT":0.00000273,"MEAN_MOTION_DDOT":0},{"OBJECT_NAME":"DELTA 1 R/B","OBJECT_ID":"1989-089B","EPOCH":"2026-09-11T23:38:36.267072","MEAN_MOTION":14.50773235,"ECCENTRICITY":0.0067549,"INCLINATION":97.0661,"RA_OF_ASC_NODE":72.6709,"ARG_OF_PERICENTER":253.3548,"MEAN_ANOMALY":106.0227,"EPHEMERIS_TYPE":0,"CLASSIFICATION_TYPE":"U","NORAD_CAT_ID":20323,"ELEMENT_SET_NO":999,"REV_AT_EPOCH":92274,"BSTAR":0.000052397,"MEAN_MOTION_DOT":0.00000176,"MEAN_MOTION_DDOT":0},{"OBJECT_NAME":"ARIANE 40 R/B","OBJECT_ID":"1990-005H","EPOCH":"2026-09-12T02:41:54.045312","MEAN_MOTION":14.39961962,"ECCENTRICITY":0.0010171,"INCLINATION":98.2874,"RA_OF_ASC_NODE":309.9892,"ARG_OF_PERICENTER":11.0306,"MEAN_ANOMALY":349.1104,"EPHEMERIS_TYPE":0,"CLASSIFICATION_TYPE":"U","NORAD_CAT_ID":20443,"ELEMENT_SET_NO":999,"REV_AT_EPOCH":91963,"BSTAR":0.000052861,"MEAN_MOTION_DOT":0.00000124,"MEAN_MOTION_DDOT":0},{"OBJECT_NAME":"DELTA 2 R/B(1)","OBJECT_ID":"1990-008B","EPOCH":"2026-09-11T13:13:36.477696","MEAN_MOTION":15.91527146,"ECCENTRICITY":0.00278191,"INCLINATION":35.5947,"RA_OF_ASC_NODE":10.0168,"ARG_OF_PERICENTER":220.5427,"MEAN_ANOMALY":139.3247,"EPHEMERIS_TYPE":0,"CLASSIFICATION_TYPE":"U","NORAD_CAT_ID":20453,"ELEMENT_SET_NO":999,"REV_AT_EPOCH":95535,"BSTAR":0.00073296589,"MEAN_MOTION_DOT":0.00257105,"MEAN_MOTION_DDOT":0.000025703396},{"OBJECT_NAME":"COSMOS 2058","OBJECT_ID":"1990-010A","EPOCH":"2026-09-11T22:48:08.453376","MEAN_MOTION":15.12413357,"ECCENTRICITY":0.0011331,"INCLINATION":82.4654,"RA_OF_ASC_NODE":223.7567,"ARG_OF_PERICENTER":58.1604,"MEAN_ANOMALY":302.0728,"EPHEMERIS_TYPE":0,"CLASSIFICATION_TYPE":"U","NORAD_CAT_ID":20465,"ELEMENT_SET_NO":999,"REV_AT_EPOCH":97038,"BSTAR":0.00013201,"MEAN_MOTION_DOT":0.00002324,"MEAN_MOTION_DDOT":0},{"OBJECT_NAME":"SL-14 R/B","OBJECT_ID":"1990-010B","EPOCH":"2026-09-12T00:47:54.628224","MEAN_MOTION":14.83691008,"ECCENTRICITY":0.0020895,"INCLINATION":82.4987,"RA_OF_ASC_NODE":92.3789,"ARG_OF_PERICENTER":48.6337,"MEAN_ANOMALY":311.667,"EPHEMERIS_TYPE":0,"CLASSIFICATION_TYPE":"U","NORAD_CAT_ID":20466,"ELEMENT_SET_NO":999,"REV_AT_EPOCH":95611,"BSTAR":0.000027503,"MEAN_MOTION_DOT":0.00000252,"MEAN_MOTION_DDOT":0},{"OBJECT_NAME":"SL-14 R/B","OBJECT_ID":"1990-018B","EPOCH":"2026-09-11T21:25:49.572768","MEAN_MOTION":14.82261821,"ECCENTRICITY":0.0015695,"INCLINATION":82.52,"RA_OF_ASC_NODE":49.0395,"ARG_OF_PERICENTER":194.4472,"MEAN_ANOMALY":165.6296,"EPHEMERIS_TYPE":0,"CLASSIFICATION_TYPE":"U","NORAD_CAT_ID":20511,"ELEMENT_SET_NO":999,"REV_AT_EPOCH":95016,"BSTAR":0.000031921,"MEAN_MOTION_DOT":0.00000279,"MEAN_MOTION_DDOT":0},{"OBJECT_NAME":"HST","OBJECT_ID":"1990-037B","EPOCH":"2026-09-12T03:41:35.033280","MEAN_MOTION":15.31622004,"ECCENTRICITY":0.0001774,"INCLINATION":28.4729,"RA_OF_ASC_NODE":205.782,"ARG_OF_PERICENTER":38.6042,"MEAN_ANOMALY":321.4681,"EPHEMERIS_TYPE":0,"CLASSIFICATION_TYPE":"U","NORAD_CAT_ID":20580,"ELEMENT_SET_NO":999,"REV_AT_EPOCH":80191,"BSTAR":0.00016027,"MEAN_MOTION_DOT":0.00005271,"MEAN_MOTION_DDOT":0},{"OBJECT_NAME":"SL-16 R/B","OBJECT_ID":"1990-046B","EPOCH":"2026-09-12T00:56:55.640832","MEAN_MOTION":14.1503484,"ECCENTRICITY":0.001364,"INCLINATION":70.9972,"RA_OF_ASC_NODE":266.5369,"ARG_OF_PERICENTER":10.9388,"MEAN_ANOMALY":349.2029,"EPHEMERIS_TYPE":0,"CLASSIFICATION_TYPE":"U","NORAD_CAT_ID":20625,"ELEMENT_SET_NO":999,"REV_AT_EPOCH":87475,"BSTAR":-0.000055729,"MEAN_MOTION_DOT":-0.00000156,"MEAN_MOTION_DDOT":0},{"OBJECT_NAME":"COSMOS 2084","OBJECT_ID":"1990-055A","EPOCH":"2026-09-11T23:05:35.769120","MEAN_MOTION":15.06415454,"ECCENTRICITY":0.0016615,"INCLINATION":62.7885,"RA_OF_ASC_NODE":59.841,"ARG_OF_PERICENTER":347.6923,"MEAN_ANOMALY":12.3769,"EPHEMERIS_TYPE":0,"CLASSIFICATION_TYPE":"U","NORAD_CAT_ID":20663,"ELEMENT_SET_NO":999,"REV_AT_EPOCH":96437,"BSTAR":0.0001165,"MEAN_MOTION_DOT":0.00001525,"MEAN_MOTION_DDOT":0},{"OBJECT_NAME":"SL-6 R/B(2)","OBJECT_ID":"1990-055D","EPOCH":"2026-09-12T04:56:34.986336","MEAN_MOTION":15.04272207,"ECCENTRICITY":0.0054184,"INCLINATION":62.7831,"RA_OF_ASC_NODE":339.1909,"ARG_OF_PERICENTER":16.3498,"MEAN_ANOMALY":343.9334,"EPHEMERIS_TYPE":0,"CLASSIFICATION_TYPE":"U","NORAD_CAT_ID":20666,"ELEMENT_SET_NO":999,"REV_AT_EPOCH":96624,"BSTAR":0.000082163,"MEAN_MOTION_DOT":0.00000972,"MEAN_MOTION_DDOT":0},{"OBJECT_NAME":"SL-8 R/B","OBJECT_ID":"1990-078B","EPOCH":"2026-09-12T00:15:23.469984","MEAN_MOTION":14.94864561,"ECCENTRICITY":0.0341866,"INCLINATION":82.897,"RA_OF_ASC_NODE":82.9994,"ARG_OF_PERICENTER":103.821,"MEAN_ANOMALY":260.1297,"EPHEMERIS_TYPE":0,"CLASSIFICATION_TYPE":"U","NORAD_CAT_ID":20775,"ELEMENT_SET_NO":999,"REV_AT_EPOCH":83708,"BSTAR":0.00036086,"MEAN_MOTION_DOT":0.00013253,"MEAN_MOTION_DDOT":0},{"OBJECT_NAME":"SL-8 R/B","OBJECT_ID":"1991-006B","EPOCH":"2026-09-12T04:13:17.713344","MEAN_MOTION":13.77522088,"ECCENTRICITY":0.0021432,"INCLINATION":82.9435,"RA_OF_ASC_NODE":31.2964,"ARG_OF_PERICENTER":230.3811,"MEAN_ANOMALY":302.0773,"EPHEMERIS_TYPE":0,"CLASSIFICATION_TYPE":"U","NORAD_CAT_ID":21088,"ELEMENT_SET_NO":999,"REV_AT_EPOCH":78974,"BSTAR":0.000085695,"MEAN_MOTION_DOT":0.00000101,"MEAN_MOTION_DDOT":0},{"OBJECT_NAME":"OKEAN-3","OBJECT_ID":"1991-039A","EPOCH":"2026-09-12T03:23:48.543648","MEAN_MOTION":15.05662189,"ECCENTRICITY":0.0015548,"INCLINATION":82.5189,"RA_OF_ASC_NODE":156.0507,"ARG_OF_PERICENTER":56.407,"MEAN_ANOMALY":303.8639,"EPHEMERIS_TYPE":0,"CLASSIFICATION_TYPE":"U","NORAD_CAT_ID":21397,"ELEMENT_SET_NO":999,"REV_AT_EPOCH":89308,"BSTAR":0.00016443,"MEAN_MOTION_DOT":0.00002408,"MEAN_MOTION_DDOT":0}]